Tracking 29747 objects as of 9-Oct-2024
HD Live streaming from Space Station
objects crossing your sky now

STARLINK-1144

Track STARLINK-1144 now!
10-day predictions
STARLINK-1144 is classified as:


NORAD ID: 44933
Int'l Code: 2020-001V
Perigee: 546.1 km
Apogee: 548.9 km
Inclination: 53.1 °
Period: 95.5 minutes
Semi major axis: 6918 km
RCS: Unknown
Launch date: January 7, 2020
Source: United States (US)
Launch site: AIR FORCE EASTERN TEST RANGE (AFETR)
Your satellite tracking list
Your tracking list is empty




NASA's NSSDC Master Catalog

Two Line Element Set (TLE):
1 44933U 20001V   24283.14861150  .00074978  00000-0  47052-2 0  9996
2 44933  53.0506 145.3292 0001974 192.1361 167.9581 15.08635118263280
Source of the keplerian elements: AFSPC